Portada
METAR-TAF:

METAR-TAF

Aeropuertos :

Omaha, Nebraska, Estados Unidos

latitud: 41-11-45N, longitud: 096-06-44W, altitud: 320 m

Observación

El informe se hizo hace 22 minutos, a las 06:55 UTC
Viento 7 kt del sur-sureste
Temperatura 28°C
Humedad 74%
Presión 1011 hPa
Visibilidad: 16.1 km
Cielo despejado

METAR: KMLE 070655Z AUTO 15007KT 10SM CLR 28/23 A2985 RMK AO2 T02760231

Hora: 02:17 (07:17 UTC)


TAF: falta

Observaciones y pronósticos meteorológicos de más de 4000 aeropuertos (mensajes METAR y TAF).

Los puntos amarillos y rojos representan las estaciones disponibles.

Ponga el ratón en el punto deseado para ver el nombre de la estación.

Haga clic para ver las observaciones y los pronósticos meteorológicos.

Para cambiar el mapa : haga clic en los botones verdes con una cruz de color negro para hacer un zoom, en el botón verde con un guión para alejar o en las flechas verdes para mapas adyacentes.


METAR-TAF: